Regional Weather Roundup
Issued by NWS

Home | Current Version | Previous Version | Graphics & Text | Print | Product List | Glossary On
Versions: 1 2 3 4 5 6 7 8 9 10 11 12 13 14 15 16 17 18 19 20 21 22 23 24 25 26 27 28 29 30 31 32 33 34 35 36 37 38 39 40 41 42 43 44 45 46 47 48 49 50
000
ASUS43 KMKX 031611
RWRWI

WISCONSIN REGIONAL WEATHER ROUNDUP
NATIONAL WEATHER SERVICE MILWAUKEE/SULLIVAN WI
1100 AM CDT WED JUN 03 2015

NOTE: "FAIR" INDICATES FEW OR NO CLOUDS BELOW 12,000 FEET WITH NO
SIGNIFICANT WEATHER AND/OR OBSTRUCTIONS TO VISIBILITY.

WIZ001-002-006>008-014>016-023>028-031700-
NORTHWEST WISCONSIN

CITY           SKY/WX    TMP DP  RH WIND       PRES   REMARKS
SUPERIOR ARPT  CLOUDY    53  50  89 E5        29.87S
ASHLAND        CLOUDY    64  58  80 CALM      29.89F
HAYWARD        CLOUDY    65  55  70 S14       29.89R
SIREN          CLOUDY    66  56  69 S13G18    29.87R
CUMBERLAND     CLOUDY    64  54  68 S14       29.88F
RICE LAKE      CLOUDY    67  55  64 SE10G16   29.90F
CHETEK         CLOUDY    66  57  71 S12G18    29.90F
LADYSMITH      CLOUDY    67  56  67 S14G20    29.94S
EAU CLAIRE     CLOUDY    68  55  63 S17       29.90F
MENOMONIE      CLOUDY    67  55  65 SE14      29.89F
NEW RICHMOND   CLOUDY    66  56  70 S10G16    29.86F
OSCEOLA        CLOUDY    66  57  72 SE9G16    29.88F
$$

WIZ003>005-009-010-017-018-031700-
NORTH CENTRAL WISCONSIN

CITY           SKY/WX    TMP DP  RH WIND       PRES   REMARKS
MANITOWISH WTR MOSUNNY   69  55  61 S13       29.93S
ARBOR VITAE    MOSUNNY   72  57  58 S15G24    29.94S
WOODRUFF       MOSUNNY   72  57  58 S15G24    29.94S
RHINELANDER    SUNNY     69  52  54 S15       29.98F
EAGLE RIVER    MOSUNNY   70  50  49 S9G17     29.95F
LAND O LAKES   SUNNY     70  51  50 S10G17    29.96S
PHILLIPS       CLOUDY    67  54  63 S14G21    29.93S
TOMAHAWK       SUNNY     67  53  60 S6        29.97S
MEDFORD        PTSUNNY   65  55  67 S15G22    29.96S
MERRILL        SUNNY     69  54  57 S10       29.98F
$$

WIZ029-030-035-036-043>047-031700-
CENTRAL WISCONSIN

CITY           SKY/WX    TMP DP  RH WIND       PRES   REMARKS
WAUSAU         MOSUNNY   70  52  52 S16       29.97F
MOSINEE        SUNNY     66  54  63 S13G20    30.00F
MARSHFIELD     PTSUNNY   71  54  54 S18       29.97F
STEVENS POINT  MOSUNNY   68  52  55 S13G18    30.00F
WAUPACA        SUNNY     72  53  51 SE10      30.01F
WAUTOMA        MOSUNNY   72  54  53 S12       30.01F
WISC RAPIDS    PTSUNNY   72  51  47 S10G20    30.00S
CAMP DOUGLAS   PTSUNNY   72  59  64 SE12G18   29.87
$$

WIZ011>013-019>022-031-037>040-048>050-031700-
NORTHEAST WISCONSIN

CITY           SKY/WX    TMP DP  RH WIND       PRES   REMARKS
ANTIGO         SUNNY     67  54  63 S16       30.00F
SHAWANO        SUNNY     72  53  50 S7        30.03S
OCONTO         SUNNY     70  54  56 S9        30.03F
STURGEON BAY   SUNNY     64  52  63 S15       30.08S
GREEN BAY      SUNNY     72  53  51 S12       30.04S
MANITOWOC      SUNNY     61  51  70 S10       30.07F
APPLETON       MOSUNNY   68  52  56 SE13G18   30.04F
CLINTONVILLE   SUNNY     70  50  49 S10G17    30.02S
OSHKOSH        SUNNY     71  53  52 S12       30.03F
$$

WIZ032>034-041-042-053>061-031700-
SOUTHWEST WISCONSIN

CITY           SKY/WX    TMP DP  RH WIND       PRES   REMARKS
LA CROSSE      PTSUNNY   73  55  53 S21G29    29.93F
SPARTA         PTSUNNY   70  53  54 S12G20    29.97S
VIROQUA        PTSUNNY   69  55  61 S17G23    29.97S
BOSCOBEL       PTSUNNY   74  57  55 S8G18     29.97F
PRAIRIE DU CHI CLOUDY    71  55  56 S8        29.95F
PLATTEVILLE    PTSUNNY   70  57  63 S17G26    30.00F
$$

WIZ056-057-062-063-064-067-068-031700-
SOUTH CENTRAL WISCONSIN

CITY           SKY/WX    TMP DP  RH WIND       PRES   REMARKS
REEDSBURG      PTSUNNY   70  58  64 S14       29.99S
BARABOO/DELLS  MOSUNNY   70  55  60 S14       30.00F
LONE ROCK      PTSUNNY   72  56  57 S15       29.99F
MINERAL POINT  PTSUNNY   72  55  56 S9G18     30.01S
MADISON        PTSUNNY   70  54  56 S14       30.02F
MIDDLETON      MOSUNNY   73  53  49 S14       30.02F
WATERTOWN      SUNNY     70  55  60 S10       30.03F
MONROE         MOSUNNY   70  57  64 S10       30.02F
JANESVILLE     PTSUNNY   72  54  53 S12G17    30.03F
$$

WIZ051-052-058>065-066-070>072-031700-
SOUTHEAST WISCONSIN

CITY           SKY/WX    TMP DP  RH WIND       PRES   REMARKS
MILWAUKEE      MOSUNNY   64  51  62 SE10      30.06F
WAUKESHA       SUNNY     64  50  59 S8        30.06S
MILWAUKEE/TIMM SUNNY     70  48  46 SE10      30.06F
RACINE         SUNNY     61  49  64 SE8       30.08F
BURLINGTON     SUNNY     68  52  56 SE6       30.05S
KENOSHA        SUNNY     68  54  60 E13       30.06F
FOND DU LAC    SUNNY     70  54  56 SE13      30.03F
SHEBOYGAN      SUNNY     65  53  65 S12       30.06F
WEST BEND      SUNNY     68  48  49 SE7       30.05S
JUNEAU         SUNNY     68  53  60 SE8       30.05S
$$

LSZ147-162-031700-
LAKE SUPERIOR

STATION/POSITION TIME  TEMP    WIND        PRES    WAVE
                       AIR SEA DIR/SP/G            HT/PER
                 (UTC) (F)     (DEG/KT/KT) (MB)    (FT/S)
W MID LAKE BUOY  1550   43 37  340/  8/ 10   N/A     1
DEVILS ISLAND    1600   60     190/  1/  3   N/A
PORT WING        1500          290/  1/ 12   N/A
SAXON HARBOR     1500   68     220/  6/ 13   N/A
$$

LMZ867-665-643>646-031700-
LAKE MICHIGAN

STATION/POSITION TIME  TEMP    WIND        PRES    WAVE
                       AIR SEA DIR/SP/G            HT/PER
                 (UTC) (F)     (DEG/KT/KT) (MB)    (FT/S)
CHAMBERS ISLAND  1500   64     180/  6/ 11   N/A
N MID LAKE BUOY  1550   42 37  190/ 10/ 10   N/A     1/ 3
NORTHPORT PIER   1500   55     150/ 10/ 13   N/A
SISTER BAY       1548   64     180/ 18/ 21   N/A
ALGOMA LAKESHORE 1509          180/ 10/ 11   N/A
KEWAUNEE LAKESHO 1500   47     180/ 11/ 12   N/A
SHEBOYGAN LAKESH 1600   47     160/  9/ 10   N/A
PORT WASHINGTON  1540   51     120/  4/  5   N/A
ATWATER BUOY     1500   51 49  150/  6/  6   N/A
MILWAUKEE LAKESH 1500   52     120/  6/  8   N/A
S MID LAKE BUOY  1550   44 39  110/  6/  8   N/A
KENOSHA   LAKESH 1600   52     150/  8/  9   N/A
$$

TC  - TEMPERATURE IN CELSIUS
VSB - VISIBILITY IN STATUTE MILES
WCI - WIND CHILL INDEX
HX  - HEAT INDEX



USA.gov is the U.S. government's official web portal to all federal, state and local government web resources and services.